SCP
0 0 0 0 0 0 0 0 0 0 0 0 0 0 0 0 0 0 0 0 0 0 0 0 0 0 0 0 0 0 0 0 0 0 0 0 0 0 0 0 0 0 0
0 0 0 0 0 0 0 0 0 0 0 0 0 0 0 0 0 0 0 0 0 0 0 0 0 0 0 0 0 0 0 0 0 0 0 0 0 0 0 0 0 0 0
0 0 0 0 0 0 0 0 0 0 0 0 0 0 0 0 0 0 0 0 0 0 0 0 0 0 0 0 0 0 0 0 0 0 0 0 0 0 0 0 0 0 0
0 0 0 0 0 0 0 0 0 0 0 0 0 0 0 0 0 0 0 0 0 0 0 0 0 0 0 0 0 0 0 0 0 0 0 0 0 0 0 0 0 0 0
0 0 0 0 0 0 0 0 0 0 0 0 0 0 0 0 0 0 0 0 0 0 0 0 0 0 0 0 0 0 0 0 0 0 0 0 0 0 0 0 0 0 0
0 0 0 0 0 0 0 0 0 0 0 0 0 0 0 0 0 0 0 0 0 0 0 0 0 0 0 0 0 0 0 0 0 0 0 0 0 0 0 0 0 0 0
0 0 0 0 0 0 0 0 0 0 0 0 0 0 0 0 0 0 0 0 0 0 0 0 0 0 0 0 0 0 0 0 0 0 0 0 0 0 0 0 0 0 0
0 0 0 0 0 0 0 0 0 0 0 0 0 0 0 0 0 0 0 0 0 0 0 0 0 0 0 0 0 0 0 0 0 0 0 0 0 0 0 0 0 0 0
0 0 0 0 0 0 0 0 0 0 0 0 0 0 0 0 0 0 0 0 0 0 0 0 0 0 0 0 0 0 0 0 0 0 0 0 0 0 0 0 0 0 0
0 0 0 0 0 0 0 0 0 0 0 0 0 0 0 0 0 0 0 0 0 0 0 0 0 0 0 0 0 0 0 0 0 0 0 0 0 0 0 0 0 0 0
0 0 0 0 0 0 0 0 0 0 0 0 0 0 0 0 0 0 0 0 0 0 0 0 0 0 0 0 0 0 0 0 0 0 0 0 0 0 0 0 0 0 0
0 0 0 0 0 0 0 0 0 0 1 0 0 0 0 0 0 0 0 0 0 0 0 0 0 0 0 0 0 0 0 0 0 0 0 0 0 0 0 0 0 0 0
0 0 0 0 0 0 0 0 0 0 0 0 0 0 0 0 0 0 0 0 0 0 0 0 0 0 0 0 0 0 0 0 0 0 0 0 0 0 0 0 0 0 0
0 0 0 0 0 0 0 0 0 0 0 0 0 0 0 0 0 0 0 0 0 0 0 0 0 0 0 0 0 0 0 0 0 0 0 0 0 0 0 0 0 0 0
0 0 0 0 0 0 0 0 0 0 0 0 0 0 0 0 0 0 0 0 0 0 0 0 0 0 0 0 0 0 0 0 0 0 0 0 0 0 0 0 0 0 0
0 0 0 0 0 0 0 0 0 0 0 0 0 0 0 0 0 0 0 0 0 0 0 0 0 0 0 0 0 0 0 0 0 0 0 0 0 0 0 0 0 0 0
0 0 0 0 0 0 0 0 0 0 0 0 0 0 0 0 0 0 0 0 0 0 0 0 0 0 0 0 0 0 0 0 0 0 0 0 0 0 0 0 0 0 0
0 0 0 0 0 0 0 0 0 0 0 0 0 0 0 0 0 0 0 0 0 0 0 0 0 0 0 0 0 0 0 0 0 0 0 0 0 0 0 0 0 0 0
0 0 0 0 0 0 0 0 0 0 0 0 0 0 0 0 0 0 0 0 0 0 0 0 0 0 0 0 0 0 0 0 0 0 0 0 0 0 0 0 0 0 0
0 0 0 0 0 0 0 0 0 0 0 0 0 0 0 0 0 0 0 0 0 0 0 0 0 0 0 0 0 0 0 0 0 0 0 0 0 0 0 0 0 0 0
0 0 0 0 0 0 0 0 0 0 0 0 0 0 0 0 0 0 0 0 0 0 0 0 0 0 0 0 0 0 0 0 0 0 0 0 0 0 0 0 0 0 0
0 0 0 0 0 0 0 0 0 0 0 0 0 0 0 0 0 0 0 0 0 0 0 0 0 0 0 0 0 0 0 0 0 0 0 0 0 0 0 0 0 0 0
0 0 0 0 0 0 0 0 0 0 0 0 0 0 0 0 0 0 0 0 0 0 0 0 0 0 0 0 0 0 0 0 0 0 0 0 0 0 0 0 0 0 0
0 0 0 0 0 0 0 0 0 0 0 0 0 0 0 0 0 0 0 0 0 0 0 0 0 0 0 0 0 0 0 0 0 0 0 0 0 0 0 0 0 0 0
0 0 0 0 0 0 0 0 0 0 0 0 0 0 0 0 0 0 0 0 0 0 0 0 0 0 0 0 0 0 0 0 0 0 0 0 0 0 0 0 0 0 0
0 0 0 0 0 0 0 0 0 0 0 0 0 0 0 0 0 0 0 0 0 0 0 0 0 0 0 0 0 0 0 0 0 0 0 0 0 0 0 0 0 0 0
Wind_Speed
6 5 5 3 3 3 3 3 1 2 3 2 2 3 3 4 4 4 3 4 4 3 4 4 4 4 3 3 3 3 3 3 2 2 2 2 2 3 2 2 0 1 1
6 6 5 4 3 4 3 2 0 2 2 3 3 3 4 4 4 4 3 3 3 3 4 4 4 4 4 4 3 4 3 2 2 2 2 2 3 2 2 3 2 1 0
6 6 5 5 4 4 4 3 1 2 2 2 3 3 4 4 4 3 2 2 3 3 4 5 5 5 4 3 4 4 3 3 2 2 2 2 2 2 2 3 3 2 2
6 5 5 5 4 3 4 3 2 3 2 3 3 4 5 6 5 5 4 3 3 4 5 5 5 5 4 4 4 4 4 3 3 2 2 2 2 3 2 2 3 3 3
7 5 5 5 4 4 4 3 3 3 3 3 4 5 5 5 5 6 5 4 4 3 4 4 5 5 6 4 3 3 4 3 3 2 2 3 3 3 3 3 3 3 3
7 6 5 5 5 5 5 3 3 3 3 4 4 5 5 5 6 8 6 4 3 3 3 3 3 4 4 4 4 4 3 2 2 2 2 3 3 3 3 4 3 3 4
8 7 6 5 6 5 5 4 3 3 3 3 3 4 4 4 5 6 7 4 3 3 3 3 3 5 5 4 4 3 3 3 2 1 2 2 2 3 3 4 4 3 4
8 8 7 6 6 5 5 5 4 3 3 3 3 3 3 3 3 3 6 3 2 2 3 3 4 5 6 5 4 4 2 2 2 1 1 1 1 2 2 3 4 4 4
9 9 8 8 7 6 5 5 4 4 4 3 3 3 3 3 2 1 3 2 1 1 3 4 4 4 6 8 5 4 4 3 3 4 4 4 5 5 3 2 3 3 4
9 9 8 8 8 7 6 5 4 4 3 3 3 2 3 3 3 1 1 1 1 0 2 3 5 4 4 6 4 4 4 4 5 5 4 4 4 4 3 1 1 1 3
9 8 8 7 7 7 5 4 4 4 3 3 3 2 3 3 4 3 1 1 1 2 1 1 1 2 2 3 3 1 3 4 4 4 4 3 2 2 1 1 0 0 1
9 8 8 7 6 6 6 4 4 4 4 3 3 3 2 3 4 4 3 2 0 1 1 1 0 0 2 3 2 4 6 5 3 3 3 3 2 2 2 1 2 2 2
9 8 7 7 6 6 6 5 4 4 4 3 3 3 3 2 3 6 6 4 3 1 1 1 3 4 4 3 5 6 5 2 2 2 2 3 3 2 2 2 3 3 3
10 8 7 7 6 6 5 5 4 4 4 4 3 3 3 3 3 3 3 3 3 3 2 3 5 6 5 5 5 4 3 2 2 2 3 3 3 2 2 2 2 2 3
9 8 7 6 6 6 5 3 4 4 5 4 3 3 3 3 3 5 4 2 1 1 1 1 2 2 2 2 2 2 2 2 2 3 3 3 3 3 3 2 2 2 3
8 7 6 5 5 5 5 4 3 4 6 7 5 4 3 5 7 6 5 4 2 1 0 2 3 3 3 3 3 3 3 3 3 3 3 3 3 3 3 3 2 3 4
8 7 6 6 6 6 5 5 4 2 3 4 6 6 6 6 6 5 5 4 3 2 2 3 4 3 3 3 3 3 3 3 3 3 3 3 3 3 3 4 4 4 4
7 7 7 5 5 5 5 5 5 5 4 3 5 8 9 8 7 7 6 3 2 3 4 4 4 4 4 3 3 3 3 3 3 3 3 3 3 4 4 4 4 4 5
6 5 5 5 5 5 4 4 4 5 5 4 3 5 9 9 8 7 6 4 4 5 5 5 5 4 4 4 3 3 3 3 4 3 3 4 3 3 4 4 4 7 6
5 7 7 5 4 4 4 4 4 4 4 4 5 5 5 5 4 5 6 5 5 5 5 5 4 4 4 3 3 3 3 4 4 4 4 4 4 4 4 5 5 5 5
4 6 8 5 4 5 4 5 4 4 4 4 4 6 9 6 6 6 6 6 6 6 5 5 4 4 4 3 3 4 4 4 4 4 4 4 4 4 4 5 6 6 6
4 4 5 5 4 4 4 4 4 4 5 5 4 5 10 6 5 5 5 6 6 6 5 4 4 4 4 4 4 4 4 4 4 4 4 4 4 4 5 5 6 6 6
4 4 4 4 4 5 5 4 4 4 4 5 4 4 5 5 5 5 5 5 4 4 4 4 4 4 4 4 4 4 4 4 3 3 3 4 4 4 5 6 7 8 8
3 4 4 3 4 4 4 4 4 4 4 4 4 4 4 5 5 5 5 4 4 4 4 4 4 6 6 5 4 4 4 3 3 2 3 4 5 5 5 6 7 9 9
3 3 3 3 3 3 4 4 4 4 4 4 4 3 3 3 4 4 3 3 3 3 4 4 3 4 6 6 5 4 5 5 5 3 3 4 6 7 7 8 8 8 9
2 2 3 3 3 3 3 3 3 3 3 3 3 3 3 3 3 3 3 3 3 3 3 3 4 4 5 5 5 5 5 6 7 7 5 4 6 7 7 7 10 10 11
Wind_Direction
147 129 124 125 128 118 96 88 85 126 134 121 78 76 81 82 80 65 43 35 33 39 49 62 59 45 31 26 23 26 32 50 56 340 352 7 31 32 6 353 276 189 214
142 141 150 148 154 143 131 131 116 78 89 102 85 70 76 74 76 74 47 40 39 43 44 51 54 53 42 29 22 23 24 34 53 0 341 1 14 17 2 332 340 5 273
149 157 156 154 162 148 138 134 118 89 74 91 103 80 77 73 67 70 65 43 51 51 50 47 42 49 38 26 27 21 12 14 22 18 343 347 357 356 355 337 340 335 330
157 159 155 151 153 140 123 132 122 99 72 50 77 78 70 63 44 32 29 30 47 61 65 60 51 50 37 24 26 14 10 8 4 7 355 348 347 342 6 346 344 340 329
156 157 157 148 138 121 113 110 99 95 90 66 64 66 69 66 43 30 10 19 32 54 71 76 79 76 62 46 35 15 12 11 5 3 352 355 356 1 356 340 346 331 322
157 159 152 146 134 131 132 129 107 89 80 76 76 73 66 63 50 37 21 8 14 35 63 83 97 84 62 44 35 26 20 19 6 359 351 355 346 353 350 350 348 350 326
162 157 151 149 142 146 141 127 121 112 97 89 88 91 91 84 57 34 18 359 4 21 39 53 48 61 53 26 4 355 351 343 351 3 353 336 340 349 351 346 341 326 296
165 158 155 151 146 144 140 143 148 139 129 124 120 122 121 116 81 30 1 340 341 15 47 58 62 52 35 25 4 355 349 349 323 344 312 305 323 321 323 313 304 309 302
167 160 158 156 154 155 159 163 162 153 150 152 150 151 144 132 129 33 0 319 313 54 78 70 72 77 34 23 8 353 354 354 344 336 316 298 298 304 301 340 340 349 328
164 159 157 158 160 163 166 165 152 145 150 147 149 162 151 143 156 133 358 307 321 39 101 95 83 79 46 24 9 360 356 342 340 330 318 302 295 297 296 252 280 342 329
149 148 151 156 159 159 158 151 146 146 152 162 163 168 153 145 154 152 119 67 351 2 54 80 88 78 47 360 348 332 312 317 319 318 317 316 315 310 303 299 320 311 305
140 144 149 153 160 155 145 149 150 150 161 178 177 181 173 159 158 171 167 163 156 31 20 52 123 237 306 302 298 294 309 323 313 311 317 319 318 311 307 319 324 306 271
143 148 152 152 150 147 153 161 161 162 171 186 187 191 187 167 164 174 185 197 211 199 247 281 279 268 279 277 266 282 296 297 294 295 293 291 289 288 301 317 316 306 300
153 157 159 161 158 158 162 169 172 176 183 190 190 192 185 170 162 173 187 202 216 227 247 271 278 269 264 269 273 271 253 241 243 251 264 273 287 299 295 280 284 296 303
158 163 167 164 162 165 164 170 176 182 181 181 188 180 175 185 177 161 162 170 168 172 293 287 279 273 263 259 264 265 259 257 256 258 261 273 281 285 281 276 270 281 282
165 169 168 165 164 165 162 167 164 170 173 172 165 164 160 158 158 158 157 158 162 181 193 261 262 259 257 258 261 264 260 256 253 253 255 255 259 266 274 276 270 269 273
170 169 166 168 169 171 170 171 176 192 195 198 194 188 184 173 171 175 181 189 212 194 211 242 247 251 254 256 255 254 259 262 260 261 260 261 260 262 267 270 267 268 270
169 169 166 168 170 176 178 179 178 178 190 217 219 209 202 200 201 203 199 185 227 211 218 233 240 244 246 251 255 256 261 271 270 266 265 265 263 264 267 268 267 269 274
170 167 168 168 170 173 176 181 185 188 187 187 181 199 207 209 213 216 198 200 221 229 228 231 233 236 239 242 249 253 255 260 265 267 267 267 266 266 268 268 270 276 276
174 173 168 167 172 177 181 188 194 194 194 192 192 189 178 181 202 211 206 213 222 230 232 233 232 231 232 236 242 248 258 264 267 264 264 264 264 264 271 276 277 277 275
170 174 177 180 184 185 186 194 196 195 198 202 204 192 179 188 203 208 207 212 218 224 227 229 230 229 229 230 234 244 253 258 259 264 268 271 274 276 275 275 276 277 278
174 179 184 189 187 189 192 194 195 199 204 208 209 202 196 196 204 209 215 218 217 216 217 217 222 221 218 219 225 234 245 253 257 262 267 271 276 278 280 281 281 282 283
176 182 187 190 189 194 201 203 202 205 208 210 206 200 195 205 211 215 219 222 221 221 218 215 218 225 228 226 223 226 236 243 246 256 271 279 281 281 281 282 284 286 284
182 187 191 195 196 198 202 208 210 213 214 215 213 207 203 206 212 218 220 221 221 221 217 215 219 227 235 236 232 230 227 228 238 255 269 275 280 280 280 280 280 279 280
191 195 196 200 204 208 211 213 216 219 221 219 215 211 209 207 212 216 219 223 228 227 227 225 225 233 242 246 246 241 233 234 237 240 252 260 266 270 273 277 278 281 281
210 211 206 205 208 213 217 220 222 223 222 221 217 212 210 213 216 216 216 218 226 233 235 235 239 247 255 255 257 257 246 240 245 247 246 257 264 268 271 273 277 279 280